[Date Prev][Date Next][Thread Prev][Thread Next][Date Index][Thread Index]

[jamsat-news:1449] jas2info #217



========================   最新情報   ==============================

        Last updated :Wed.21MAR2001  11:00 (JST) #217
        
====================================================================
   
  1)アマチュア通信衛星情報、FOシリーズの軌道要素、テレメトリ、QSOの
   状況等をまとめてみました.
   
   FO−29の2001年3月21日(水)の9:55(JST)のパスでは
  JARLのホームページのとうりアナログ運用でした。今まで観測したテレメトリーと
  分析結果を掲載しておきます.

AS22673C1   21MAR2001
9:55-10:13(JST)
FREQ.435.803-.787MHz

HI HI AE C7 88 55 00 D4 6C 5B 09 1E 43 86 80 5F 91 90 B0 94 AF AA B1 B3 AE 
HI HI AE C7 88 55 00 D4 6C 5B 09 1E 45 6E 82 60 92 90 B1 7E AF AA B1 B3 AE 
HI HI AE C7 88 55 00 D4 6C 5B 09 1E 48 7F 82 60 92 90 B0 7E AF AA B1 B3 AE 
HI HI AE C7 88 55 00 D4 6C 5B 09 1E 4A 7B 81 60 92 90 B0 71 AF AA B1 B3 AE 
HI HI AE C7 88 55 00 D4 6C 5B 09 1E 4D 75 80 60 92 90 B0 74 AF AA B1 B3 AE 
HI HI AE C7 88 55 00 D4 6C 5B 09 1E 4F 6E 7F 60 92 91 B0 6E AF AA B1 B3 AE 
HI HI AE C7 88 55 00 D4 6C 5B 09 1E 51 68 7D 60 92 91 B0 6E AF A9 B1 B3 AE 
HI HI AE C7 88 55 00 D4 6C 5B 09 1E 52 61 7B 60 92 91 B0 96 AF A9 B1 B3 AE 
HI HI AE C7 88 55 00 D4 6C 5B 09 1E 52 5A 79 60 93 91 B0 76 AF A9 B1 B3 AE 
HI HI AE C7 88 55 00 D4 6C 5B 09 1E 52 5A 75 60 92 91 B0 7B EF A9 B1 B3 AE 
HI HI AE C7 88 55 00 D4 6C 5B 09 1E 52 4E 72 60 92 91 B0 84 AF A9 B0 B3 AE 
HI HI AE C7 88 55 00 D4 6C 5B 09 1E 4F 4A 6A 60 93 91 B0 7F AF A8 B0 B3 AE 
HI HI AE C7 88 55 00 D4 6C 5B 09 1E 4D 47 69 60 93 91 B0 7A AF A8 B0 B3 AE 
HI HI AE C7 88 55 00 D4 6C 5B 09 1E 49 46 69 60 93 91 B0 7E AF A8 B0 B2 AE 
HI HI AE C7 88 55 00 D4 6C 5B 09 1E 45 46 69 60 93 91 B0 6C AF A8 B0 B2 AE
HI HI AE C7 88 55 00 D4 6C 5B 09 1E 41 46 68 60 93 92 B0 93 AF A8 B0 B2 AE
HI HI AE C7 88 55 00 D4 6C 5B 09 1E 3D 4B 76 61 93 91 B0 89 AF A8 AF B2 AE 
HI HI AE C7 88 55 00 D4 6C 5B 09 1E 49       60 93 91 B0 82 AE A8 AF B2 AE 
HI HI AE C7 88 55 00 D4 6C 5B 09 1E 35 54 7E 60 93 91 B0 72 AE A8 AE B2 AE 
HI HI AE C7 88 55 00 D4 6C 5B 09 1E 33 5B 7F 60 93 91 B0 7B AE A8 AF B2 AE 
HI HI AE C7 88 55 00 D4 6C 5B 09 1E 31 61 81 61 93 92 B0 81 AE A8 AF B1 AE 
HI HI AE C7 88 55 00 D4 6C 5B 09 1E 31 68 82 61 94 92 B0 8A AE A7 AF B1 AE 
HI HI AE C7 88 55 00 D4 6C 5B 09 1E 32 6F 81 61 94 92 B0 77 AE A7 AF B1 AE 
HI HI AE C7 88 55 00 D4 6C 5B 09 1E 35 75 80 61 93 92 B0 95 AE A7 AE B1 AE 
HI HI AE C7 88 55 00 D4 6C 5B 09 1E 39 7B 7D 61 94 92 B0 70 AE A7 AE B1 AE 
HI HI AE C7 88 55 00 D4 6C 5B 09 1E 3E 80 7C 61 94 92 B0 61 AD A7 AE B1 AE 
HI HI AE C7 88 55 00 D4 6C 5B 09 1E 45 84 7A 61 94 92 B0 76 AD A6 AE B1 AE

AS22625C1     17MAR2001
21:21-21:36(JST)
FREQ.435.804-.786MHz

HI HI AE 07 88 55 00 D4 E6 54 09 03 7E 7E 00 81 8E 8C 98 6E A9 AC AF A8 AE 
HI HI AE 07 88 55 00 D4 E6 54 09 03 79 76 00 88 87 86 92 7A A8 AC AF A8 AE 
HI HI AE 07 88 55 00 D4 E6 54 09 03 74 6E 00 89 86 85 90 8C A9 AC AF A8 AE 
HI HI AE 07 88 55 00 D4 E6 54 09 03 6E 65 00 8A 85 84 90 6A A9 AC AF A8 AE 
HI HI AE 07 88 55 00 D4 E6 54 09 03 5D 60 00 8A 85 84 8F 6F A9 AC AF A8 AE 
HI HI AE 07 88 55 00 D4 E6 54 09 03 64 55 00 87 84 84 8F 76 A9 AD AF A8 AE 
HI HI AE 07 88 55 00 D4 E6 54 09 03 60 4E 00 87 84 84 8F 7F A9 AD AF A8 AD 
HI HI AE 07 88 55 00 D4 E6 54 09 03 5D 47 00 89 84 83 8E 80 A9 AD AF A8 AD 
HI HI AE 07 88 55 00 D4 E6 54 09 03 5A 41 00 88 84 83 8E 85 A9 AD AF E8 AD 
HI HI AE 07 88 5S 00 D4 E6 54 09 03 59 3A 00 88 83 82 8D 88 AA AD AF A8 AD 
HI HI AE 07 88 55 00 D4 E6 54 09 03 59 38 00 88 83 82 8D 89 AA AD AF A8 AD 
HI HI AE 07 88 55 00 D4 E6 54 09 03 5A 35 00 88 83 82 8D 79 AA AD AF A8 AD 
HI HI AE 07 88 55 00 D4 E6 54 09 03 5C 33 00 86 83 82 8D 85 AA AE AF A9 AD 
HI HI AE 07 88 55 00 D4 E6 54 09 03 5F 32 00 89 83 82 8D 84 AA AE AF A9 AD 
HI HI AE 07 88 55 00 D4 E6 54 09 03 64 32 00 89 83 82 8D 77 AA AE AF A9 AD 
HI HI AE 07 88 55 00 D4 E6 54 09 03 69 33 00 87 82 82 8D 63 AA AE AF A9 AD 
HI HI AE 07 88 55 00 D4 E6 54 09 03 6E 34 01 8A 82 81 8D 83 AB AE AF A9 AD 
HI HI AE 07 88 55 00 D4 E6 54 09 03 7B 3A 00 88 82 81 8C 89 AB AE TF AA AD 
HI HI AE 07 88 55 00 D4 E6 54 09 03 81 3D 00 89 82 81 8C 86 AB AF AF AA AD
HI HI AE 07 88 55 00 D4 E6 54 09 03 88 42 00 96 82 81 8C 84 AB AF AF AA AD

AS22525C1   10MAR2001
11:20-11:26(JST)
FREQ.435.795-.789MHz

HI HI AE C7 88 55 00 D4 7B CO 09 2A 8B 3D 77 60 92 91 B0 95 AA A8 B0 AE AC 
HI HI AE C7 88 55 00 D4 75 C8 09 2A 8C 3C 6F 60 92 91 B0 92 AA A8 B0 AE AC 
HI HI AE C7 88 55 00 D4 75 C8 09 2A 8C 3B 6F 60 92 91 B0 84 AA A8 B0 AE AC 
HI HI AE C7 88 55 00 D4 75 C8 09 2A 8C 3A 77 60 93 91 B0 8D AA A8 AF AE AC 
HI HI AE C7 88 55 09 D4 75 C8 09 2A 8B 3A 7D 60 92 91 B0 63 AA A8 AF AE AC 
HI HI AE C7 88 55 00 D4 75 C8 09 2A 8A 3A 81 60 93 91 B0 6A A9 A8 AF AD AC 
HI HI AE C7 88 55 00 D4 75 C8 09 2A 88 3B 82 60 93 91 B0 79 A9 A7 AF AD AC 
HI HI AE C7 88 55 00 D4 75 C8 09 2A 86 3C 83 60 93 91 B0 80 A9 A7 AF AD AC 
HI HI AE C7 88 55 00 D4 75 C8 09 2A 84 3E 83 60 93 91 B0 85 A9 A7 AF AD AC 
HI HI AE C7 88 55 00 D4 75 C8 09 2A 8A 3F 83 60 93 91 B0 83 A9 A7 AF AD AC 
 
 ------------------------ FO-29の軌道要素 ------------------------------        
 
  ■ 軌道要素1:「jamsat−keps:1085」より         
          SB KEPS @ AMSAT  $ORB01074.N
          2Line Orbital Elements 01074.AMSAT

HR AMSAT ORBITAL ELEMENTS FOR AMATEUR SATELLITES IN NASA FORMAT
FROM WA5QGD FORT WORTH,TX March 15, 2001
SEND SUBSCRIBE/UNSUBSCRIBE TO majordomo@amsat.org ONLY
BID: ORB01074.N

 DECODE 2-LINE ELSETS WITH THE FOLLOWING KEY:
 1 AAAAAU 00  0  0 BBBBB.BBBBBBBB  .CCCCCCCC  00000-0  00000-0 0  DDDZ
 2 AAAAA EEE.EEEE FFF.FFFF GGGGGGG HHH.HHHH III.IIII JJ.JJJJJJJJKKKKKZ
 KEY: A-CATALOGNUM B-EPOCHTIME C-DECAY D-ELSETNUM E-INCLINATION F-RAAN
 G-ECCENTRICITY H-ARGPERIGEE I-MNANOM J-MNMOTION K-ORBITNUM Z-CHECKSUM

FO-29
1 24278U 96046B   01074.19361312  .00000057  00000-0  97404-4 0  3990
2 24278  98.5630 312.1047 0350190 245.3642 111.0648 13.52762539225933

 ■ 軌道要素2:「jamsat−keps:1084」より                     

        SB KEPS @ AMSAT  $ORB01074.O
        Orbital Elements  01074.OSCAR

HR AMSAT ORBITAL ELEMENTS FOR OSCAR SATELLITES
FROM WA5QGD FORT WORTH,TX March 15, 2001
SEND SUBSCRIBE/UNSUBSCRIBE TO majordomo@amsat.org ONLY
BID: ORB01074.O
TO ALL RADIO AMATEURS BT
 
Satellite: FO-29
Catalog number: 24278
Epoch time:      01074.19361312
Element set:     399
Inclination:       98.5630 deg
RA of node:       312.1047 deg
Eccentricity:    0.0350190
Arg of perigee:   245.3642 deg
Mean anomaly:     111.0648 deg
Mean motion:   13.52762539 rev/day
Decay rate:        5.7e-07 rev/day^2
Epoch rev:           22593
Checksum:              294
  
-------------------  FO-29(JAS-2)のテレメトリに関する情報  ---------------------- 
 
2)上記テレメトリー3月21日(水)のテレメトリ最終行を分析しておきます.

AS22673C1   21MAR2001
9:55-10:13(JST)
FREQ.435.803-.787MHz

HI HI AE C7 88 55 00 D4 6C 5B 09 1E 45 84 7A 61 94 92 B0 76 AD A6 AE B1 AE

テレメトリ   内 容       換算算値 単 位  
3C	磁気センサーZ軸=	33823.5	[nT]
3D	磁気センサX軸	=	64705.9	[nT]
4A	太陽電池発生電流=	 1196.1	[mA]
4B	B充放電電流	=	  -98.8	[mA]
4C	B端子電圧	=	   15.9	[V]
4D	B中間端子電圧	=	    7.0	[V]
5A	バス電圧	=	   17.3	[V]
5B	JTA送信電力	=	  668.9	[mW]
5C 	構体温度1	=	   14.7	[℃]
5D	構体温度2	=	   17.4	[℃]
6A	構体温度3	=	   14.3	[℃]
6B	構体温度4	=	   13.1	[℃]
6C	Bセル温度	=	   14.3	[℃]
   	
 ===========================  FO-29(ふじ3号)のQSO情報等 ======================
   
 3)[jamsat-bb:

 ===============================================================================
   4)JARL のホームページに運用予定が記載されていましたのでご紹介します.
       ( http://www.jarl.or.jp/Japanese/3_Fuji/new/uy.htm )

        ■ ふじ3号/FOー29/JAS-2 ■  
   
     *** 運用予定について ***

     2月1日 〜 4月2日 アナログ系運用

  *なお,運用予定は都合により変更することがありますので予めご了承願います。

 照会先 : lab@jarl.or.jp

 最新の情報はテレホンサービス(03−3942−1000)をお聞きください。  
 以後の運用につきましては平成13年4月上旬にお知らせ致します。    
    
-----------------------    FO−20(JAS-1b)道要素   -------------------------
  5)
  ■ 軌道要素1 :出典はFO-29「ふじ3号」に同じ.
  
FO-20
1 20480U 90013C   01073.75845546 -.00000016  00000-0  32370-4 0 03252
2 20480 099.0640 159.8084 0540047 162.8886 199.1228 12.83289026519983
 
  ■ 軌道要素2 :出典はFO−29「ふじ3号」に同じ.
               
Satellite: FO-20
Catalog number: 20480
Epoch time:      01073.75845546
Element set:    0325
Inclination:      099.0640 deg
RA of node:       159.8084 deg
Eccentricity:    0.0540047
Arg of perigee:   162.8886 deg
Mean anomaly:     199.1228 deg
Mean motion:   12.83289026 rev/day
Decay rate:       -1.6e-07 rev/day^2
Epoch rev:           51998
Checksum:              327
 
 --------------------------------------------------------------------------------
 
         ■ ふじ2号/FO−20/JAS-1b ■      
            
          「ふじ2号」 現況                                                                                  
             
   JAS-1b(ふじ2号)のCWテレメトリ信号に,1997年10月12日12時(JST)の
 日本上空通過時,3桁の数字が繰り返されるはずが3個の長音の繰り返しとなっているという
 異常が発見されました。この不具合は次の通過時からは回復していましたが13日15時20分の
 通過時に再び観測されました。現在はA0の送信が続いています。衛星のアナログ系中継モード
 動作は異常が無く,正常時のテレメトリ内容からは衛星の動作に異常は認められません。従って,
 直ちに衛星のミッションに影響することは無いと予想されますので,当面はアナログ系中継
 モードを継続します。衛星は既に打ち上げてから7年8ヶ月を経ておりますので,今後は監視を
 強化する予定です。アマチュア各位のレポートをお待ちします。
 -------------------------------------------------------------------------------- 
  1997年10月14日 00時35分 確認のテレメトリ音 151 KB (A0) 
  1997年10月14日 11時10分 確認のテレメトリ音 216 KB (異常キーイング) 

  以上 JARLのホ−ムページの http://www.jarl.or.jp/Japanese/3_Fuji/new/fuji.htm

===================== FO-20 ふじ2号 のテレメトリ観測結果 ====================

   12月22日(金)の12:21(JST)のパスの観測結果では以前観測した
 単一周波数のドップラー効果で周波数がずれていくのみの状態に戻っておりました。
                                         
   =============   JAS-2 (ふじ3号)と現在までの情報   ===========
  
  A.電話によるふじ3号の運用情報
      社団法人日本アマチュア連盟によるサービス
           TEL .   03− 3942 − 1000
  B.アマチュア無線FAXサービス
      JARLによるふじ3号の軌道情報(オービットカレンダー)
         FAX No.  03− 3233 −0055
  C.WWWブラウザで情報を簡単に見れる人のためにJAS−2
     ふじ3号の衛星としての運用されるまでの名前)の概要、打ち上げ
     までの状況、運用中における状況を説明したホームページを紹介し
     ておきます.
     社団法人日本アマチュア無線連盟(JARL)のホームページ

          http://www.jarl.or.jp/Japanese/3_Fuji/jasmenu.htm
 
     宇宙開発事業団(NASDA)ホームページ 
          http://www.nasda.go.jp/
         打上げ衛星 :地球観測プラットフォーム技術衛星(ADEOS) 
                       アマチュア衛星3号(JAS-2)
          http://yyy.tksc.nasda.go.jp/Home/Press/Press-j/jas-2_j.html        

  D.JAMSATによる軌道情報の活用
        JAMSATのホームページまたはjamsat−kepsの軌道要素より
      衛星の軌道情報を得る.
     JAMSATホームページ
               URL    http://www.jamsat.or.jp
       上記ホームページでは各地で行われるアマチュア通信衛星に関する
      ミューティングのお知らせや世界のアマチュア衛星に関する情報が
      満載されています.
 ========================================================================  
     JAMSATのメンバーのご協力によりJH6MME(高山 秀造)が
    執筆・編集を担当しております.ご指摘の意見、疑問やこのようにしたら
    というアイデアがありましたら小さなことでもかまいませんので気軽に下
    記アドレスまでご連絡ください.jamsat−newsからjas2
    infoへの転載をJH4PHW局坂井さんに担当して頂いております.  
                  E-mail : jh6mme@jamsat.or.jp : jh4phw@jamsat.or.jp
 ===============================   END  ===============================